Flag for Slovakia Weather past 2 weeks in Prešov, Slovakia

Now
68 °F

Sunny.


Feels Like: 68 °F
Forecast: 56 / 77 °F
Wind: 17 mph from North

Location: Kosice - Barca

Current Time: Sep 3, 2014 at 9:40:11 AM

Latest Report: Sep 3, 2014 at 9:00 AM


Visibility: 10 mi

Pressure: 30.01 "Hg

Humidity: 64%

Dew point: 55 °F

Location of PrešovLocation

Historic Weather in Prešov — Graph

°F

Prešov temperature yesterday

Maximum temperature yesterday: 75 °F (at 2:00 PM)
Minimum temperature yesterday: 64 °F (at 3:30 AM)
Average temperature yesterday: 69 °F

Past Weeks' High & Low Weather Summary

 TemperatureHumidityPressure
High77 °F (Aug 19, 1:30 PM)100% (Aug 21, 4:30 AM)30.15 "Hg (Aug 21, 4:30 AM)
Low45 °F (Aug 22, 5:30 AM)31% (Aug 22, 1:30 PM)29.74 "Hg (Aug 27, 4:00 AM)
Average62 °F76%29.97 "Hg
* Reported Aug 19 8:00 AM — Sep 3 8:30 AM, Prešov, Weather by CustomWeather, © 2014

Note: Actual official high and low records may vary slightly from our data, if they occured in-between our weather recording intervals... More about our weather records

Advertising

Prešov weather history for previous 24 hours

 ConditionsComfort  
Time TempWeatherWind HumidityBarometerVisibility
8:30 AM
Sep 3
66 °FSunny.17 mph68%30.01 "Hg10 mi
8:00 AM66 °FSunny.20 mph68%30.01 "Hg10 mi
7:30 AM66 °FSunny.20 mph68%29.98 "Hg10 mi
7:00 AM66 °FSunny.17 mph68%29.98 "Hg10 mi
6:30 AM66 °FClear.16 mph68%29.98 "Hg10 mi
6:00 AM66 °FClear.18 mph68%29.98 "Hg10 mi
5:30 AM66 °FClear.18 mph68%29.98 "Hg10 mi
5:00 AM66 °FClear.17 mph68%29.98 "Hg10 mi
4:30 AM66 °FClear.18 mph73%29.98 "Hg10 mi
4:00 AM66 °FClear.16 mph73%29.98 "Hg10 mi
3:30 AM66 °FClear.17 mph73%29.98 "Hg10 mi
3:00 AM66 °FClear.17 mph73%29.98 "Hg10 mi
2:30 AM66 °FClear.17 mph73%29.98 "Hg10 mi
2:00 AM66 °FClear.16 mph73%29.98 "Hg10 mi
1:30 AM68 °FClear.18 mph73%29.98 "Hg10 mi
1:00 AM68 °FClear.21 mph73%29.98 "Hg10 mi
12:30 AM68 °FClear.20 mph73%29.98 "Hg10 mi
12:00 AM68 °FClear.16 mph73%29.98 "Hg10 mi
11:30 PM
Sep 2
68 °FClear.16 mph73%29.98 "Hg10 mi
11:00 PM68 °FClear.17 mph73%29.98 "Hg10 mi
10:30 PM68 °FClear.17 mph73%29.98 "Hg10 mi
10:00 PM68 °FClear.16 mph73%29.98 "Hg10 mi
9:30 PM70 °FClear.15 mph64%29.98 "Hg10 mi
9:00 PM70 °FClear.17 mph64%29.95 "Hg10 mi
8:30 PM70 °FClear.17 mph64%29.95 "Hg10 mi
8:00 PM70 °FSunny.18 mph64%29.95 "Hg10 mi
7:30 PM70 °FSunny.18 mph64%29.95 "Hg10 mi
7:00 PM70 °FSunny.17 mph64%29.92 "Hg10 mi
6:30 PM72 °FSunny.20 mph61%29.92 "Hg10 mi
6:00 PM72 °FSunny.21 mph61%29.92 "Hg10 mi
5:30 PM72 °FSunny.22 mph61%29.92 "Hg10 mi
5:00 PM72 °FSunny.22 mph65%29.92 "Hg10 mi
4:30 PM73 °FSunny.20 mph61%29.92 "Hg10 mi
4:00 PM73 °FSunny.21 mph57%29.92 "Hg10 mi
3:30 PM73 °FSunny.20 mph61%29.89 "Hg10 mi
3:00 PM73 °FSunny.18 mph61%29.89 "Hg10 mi
2:30 PM75 °FSunny.20 mph61%29.89 "Hg10 mi
2:00 PM75 °FSunny.18 mph57%29.92 "Hg10 mi
1:30 PM73 °FSunny.18 mph61%29.92 "Hg10 mi
1:00 PM72 °FSunny.15 mph69%29.92 "Hg10 mi
12:30 PM72 °FSunny.14 mph69%29.92 "Hg10 mi
12:00 PM72 °FSunny.14 mph69%29.92 "Hg10 mi
11:30 AM70 °FSunny.12 mph69%29.92 "Hg10 mi
11:00 AM70 °FSunny.14 mph73%29.92 "Hg10 mi
10:30 AM70 °FSunny.13 mph69%29.92 "Hg10 mi
10:00 AM68 °FSunny.12 mph73%29.92 "Hg10 mi
9:30 AM68 °FSunny.12 mph78%29.89 "Hg10 mi
9:00 AM68 °FSunny.13 mph73%29.89 "Hg10 mi
Weather by CustomWeather, © 2014

See weather overviewHow to use our weather pages